This is the latest recevied weather packets stored in our database for station/object KE2HEH. If no packets are shown the sender has not sent any weather packets the latest 10 day(s).
| Time | Temp. | Humidity | Pressure | Rain* | Wind** | Luminosity | Snow |
|---|---|---|---|---|---|---|---|
| 1777752104 | 14.44° C | 63% | 1010.7 hPa | 0 mm | - | 450 W/m² | - |
| 1777751803 | 15° C | 65% | 1010.7 hPa | 0 mm | - | 230 W/m² | - |
| 1777751499 | 15.56° C | 63% | 1010.7 hPa | 0 mm | - | 461 W/m² | - |
| 1777751196 | 15.56° C | 62% | 1010.9 hPa | 0 mm | - | 472 W/m² | - |
| 1777750892 | 15° C | 62% | 1010.9 hPa | 0 mm | - | 495 W/m² | - |
| 1777750589 | 15° C | 63% | 1011.1 hPa | 0 mm | - | 423 W/m² | - |
| 1777750286 | 15.56° C | 62% | 1011.1 hPa | 0 mm | - | 519 W/m² | - |
| 1777749981 | 15.56° C | 61% | 1011.2 hPa | 0 mm | - | 518 W/m² | - |
| 1777749679 | 15° C | 61% | 1011.3 hPa | 0 mm | - | 523 W/m² | - |
| 1777749376 | 15° C | 63% | 1011.4 hPa | 0 mm | - | 354 W/m² | - |
| 1777749073 | 15° C | 63% | 1011.4 hPa | 0 mm | - | 393 W/m² | - |
| 1777748771 | 15° C | 65% | 1011.4 hPa | 0 mm | - | 258 W/m² | - |
| 1777748468 | 15° C | 65% | 1011.4 hPa | 0 mm | - | 362 W/m² | - |
| 1777748162 | 15° C | 65% | 1011.6 hPa | 0 mm | - | 329 W/m² | - |
| 1777747860 | 15° C | 67% | 1011.7 hPa | 0 mm | - | 525 W/m² | - |
| 1777747556 | 13.89° C | 73% | 1011.6 hPa | 0 mm | - | 557 W/m² | - |
| 1777747251 | 13.89° C | 73% | 1011.6 hPa | 0 mm | - | 393 W/m² | - |
| 1777746948 | 13.89° C | 71% | 1011.8 hPa | 0 mm | - | 256 W/m² | - |
| 1777746644 | 13.89° C | 73% | 1011.9 hPa | 0 mm | - | 265 W/m² | - |
| 1777746339 | 13.89° C | 73% | 1011.9 hPa | 0 mm | - | 613 W/m² | - |
| 1777746036 | 13.89° C | 74% | 1012 hPa | 0 mm | - | 266 W/m² | - |
| 1777745734 | 14.44° C | 74% | 1011.9 hPa | 0 mm | - | 572 W/m² | - |
| 1777745432 | 14.44° C | 77% | 1012 hPa | 0 mm | - | 526 W/m² | - |
| 1777745129 | 13.89° C | 78% | 1012.1 hPa | 0 mm | - | 686 W/m² | - |
| 1777744826 | 13.89° C | 78% | 1011.9 hPa | 0 mm | - | 639 W/m² | - |
* Rain latest hour (hover to see other rain measurements)
** Current wind speed in m/s (hover to see current wind gust speed)